PDT,Max TemperatureF,Mean TemperatureF,Min TemperatureF,Max Dew PointF,MeanDew PointF,Min DewpointF,Max Humidity, Mean Humidity, Min Humidity, Max Sea Level PressureIn, Mean Sea Level PressureIn, Min Sea Level PressureIn, Max VisibilityMiles, Mean VisibilityMiles, Min VisibilityMiles, Max Wind SpeedMPH, Mean Wind SpeedMPH, Max Gust SpeedMPH,PrecipitationIn, CloudCover, Events, WindDirDegrees
2011-9-1,78,65,52,42,36,30,59,39,18,30.13,30.05,29.98,10,10,10,17,4,41,0.00,1,,294
2011-9-2,78,64,50,40,33,28,54,35,16,30.17,30.09,29.98,10,10,10,14,6,31,0.00,0,,294
2011-9-3,83,65,47,36,29,20,54,32,10,30.23,30.13,30.03,10,10,10,22,7,28,0.00,0,,104
2011-9-4,92,71,49,39,32,26,56,33,10,30.03,29.94,29.82,10,10,10,23,3,29,0.00,0,Rain,173
2011-9-5,94,75,56,39,35,29,47,29,11,29.95,29.89,29.83,10,10,10,26,5,31,0.00,0,,210
2011-9-6,94,75,55,41,36,30,49,30,11,30.12,30.06,29.98,10,10,10,10,5,26,0.00,0,,27
2011-9-7,98,77,56,42,37,31,51,31,10,30.18,30.10,30.02,10,10,7,13,4,,0.00,0,Rain,100
2011-9-8,98,80,61,42,38,28,46,28,9,30.15,30.08,30.01,10,10,7,13,4,18,0.00,0,Rain,124
2011-9-9,95,77,58,40,37,33,47,30,12,30.16,30.05,29.95,10,10,9,9,2,10,0.00,0,,127
2011-9-10,97,78,59,45,38,33,48,31,13,30.00,29.91,29.81,10,9,7,13,3,25,0.00,0,,193
2011-9-11,98,79,59,44,39,35,48,30,12,29.91,29.85,29.78,10,10,10,9,3,12,0.00,0,,349
2011-9-12,97,79,61,45,39,33,48,30,11,29.99,29.92,29.86,10,10,8,14,3,18,0.00,0,,7
2011-9-13,93,76,59,43,37,32,49,31,12,30.03,29.96,29.89,10,10,9,14,2,18,0.00,0,,43
2011-9-14,93,76,58,41,37,31,46,29,12,29.94,29.83,29.72,10,10,9,9,3,13,0.00,0,,292
2011-9-15,72,65,58,52,44,36,75,52,29,29.88,29.81,29.72,10,10,5,14,3,21,0.05,3,Rain,171
2011-9-16,73,62,50,45,42,39,71,51,31,29.97,29.91,29.86,10,10,10,14,4,23,0.00,1,,352
2011-9-17,72,60,48,45,38,35,66,47,28,30.07,30.04,29.94,10,10,10,10,3,12,T,3,Rain,40
2011-9-18,79,68,56,50,47,43,72,51,30,30.16,30.10,30.02,10,10,9,8,4,10,T,5,Rain,77
2011-9-19,77,66,55,54,46,38,80,54,27,30.12,30.06,30.01,10,10,10,22,6,30,0.00,2,,254
2011-9-20,79,64,48,43,38,32,71,45,19,30.20,30.12,30.06,10,10,10,8,3,10,0.00,0,,76
2011-9-21,83,66,49,40,37,33,66,42,18,30.15,30.06,29.98,10,10,10,8,3,10,0.00,0,,53
2011-9-22,85,69,52,43,40,35,71,45,19,30.07,30.01,29.96,10,10,10,8,4,23,0.00,0,,112
2011-9-23,92,75,57,44,40,35,57,36,15,30.09,30.01,29.92,10,10,8,8,2,8,0.00,0,,114
2011-9-24,100,78,56,43,36,23,61,36,10,29.92,29.75,29.55,10,10,4,12,4,14,0.00,0,,95
2011-9-25,77,66,54,51,41,29,86,53,20,29.99,29.78,29.57,10,10,7,30,8,43,0.09,3,Rain,342
2011-9-26,77,63,48,51,48,46,93,65,36,30.09,30.02,29.92,10,10,10,12,5,16,0.00,3,,97
2011-9-27,76,64,51,49,46,40,83,61,38,30.16,30.04,29.97,10,10,10,24,8,31,0.00,4,,301
2011-9-28,70,60,50,39,35,30,55,40,25,30.34,30.27,30.19,10,10,10,20,3,31,0.00,1,,300
2011-9-29,78,61,43,38,36,32,70,47,24,30.19,30.06,29.92,10,10,10,8,3,10,0.00,0,,134
2011-9-30,83,66,49,41,39,36,63,43,22,29.96,29.83,29.69,10,9,5,14,3,21,0.00,0,,316